Погода в Мостовом

Россия / Удмуртская Республика     56°16′42″N   53°42′56″E
темп.,
°C
ветер,
м/с
пор.,
м/с
влажн.,
%
обл.,
%
осадки,
мм/ч
давл.,
гПа
погр.,
м
8 марта, пн
пн801:00−14ю51095100 0.0 1005263
04:00−12ю61295100 0.4 1002459
07:00−10ююв71394100 0.8 998597
10:00−7ю71394100 1.6 996762
13:00−3юз101483100 1.2 9941181
16:00−5зюз9157683 1.3 996941
19:00−8зюз7158744 0.0 999572
22:00−11юз5119150 0.0 1000197
9 марта, вт
вт901:00−12юз339349 0.0 100038
04:00−11з479374 0.4 1002162
07:00−16з489780 0.0 1004144
10:00−13з359581 0.0 1008190
13:00−10зюз359273 0.0 1009353
16:00−9юз249287 0.1 1010393
19:00−13юз2296100 0.0 101020
22:00−15зюз1197100 0.1 101120
10 марта, ср
ср1001:00−15ссв129898 0.1 100920
04:00−15с369799 0.1 1009136
07:00−17ссв61095100 0.1 1008315
10:00−19с71295100 0.3 1009339
13:00−19с81289100 0.0 1010401
16:00−17с71281100 0.0 1012599
19:00−18ссз61385100 0.0 1014669
22:00−21ссз51389100 0.0 1016493
11 марта, чт
чт1101:00−24ссз5129280 0.0 1016286
04:00−25ссз499582 0.0 1017159
07:00−26сз4796100 0.0 1019111
10:00−23зсз469556 0.0 1020234
13:00−18з479384 0.0 1020381
16:00−15зсз589392 0.1 1020502
19:00−15з4895100 0.1 1021222
22:00−13з5995100 0.1 1022260
12 марта, пт
пт1201:00−12зсз4894100 0.1 1024193
04:00−16сз479271 0.1 1026105
07:00−19зсз46950 0.0 102886
10:00−14зсз47900 0.0 1030239
13:00−9зсз58850 0.0 1030402
16:00−8зсз48830 0.0 1030431
19:00−12з44860 0.0 103055
22:00−15з45900 0.0 103181